Regional Weather Roundup
Issued by NWS Raleigh/Durham, NC

Home | Current Version | Previous Version | Text Only | Print | Product List | Glossary On
Versions: 1 2 3 4 5 6 7 8 9 10 11 12 13 14 15 16 17 18 19 20 21 22 23 24 25 26 27 28 29 30 31 32 33 34 35 36 37 38 39 40 41 42 43 44 45 46 47 48 49 50
000
ASUS42 KRAH 100510
RWRRAH
NORTH CAROLINA WEATHER ROUNDUP
NATIONAL WEATHER SERVICE RALEIGH NC
1200 AM EST WED FEB 10 2016

NOTE: "FAIR" INDICATES FEW OR NO CLOUDS BELOW 12,000 FEET WITH NO
SIGNIFICANT WEATHER AND/OR OBSTRUCTIONS TO VISIBILITY.

NCZ001-053-055-056-065-067-100600-
WESTERN NORTH CAROLINA

CITY           SKY/WX    TMP DP  RH WIND       PRES   REMARKS
ASHEVILLE      FLURRIES  21  13  71 NW12      29.83F WCI   9
JEFFERSON      FLURRIES  16   7  68 W15G28    29.68F WCI   1
MORGANTON      CLEAR     25  11  55 W3        29.88S
HICKORY        CLEAR     23  11  60 W6        29.83S WCI  16
RUTHERFORDTON  CLEAR     26  11  53 W3        29.86S
MOUNT AIRY     PTCLDY    27  14  58 W7        29.82F WCI  19
BOONE          LGT SNOW  15  10  82 W13G29    29.71R WCI   1
$$

NCZ021-022-025-041-071-084-088-100600-
CENTRAL NORTH CAROLINA

CITY           SKY/WX    TMP DP  RH WIND       PRES   REMARKS
CHARLOTTE      CLEAR     27  11  51 NW8       29.87S WCI  19
GREENSBORO     PTCLDY    25  11  55 W10       29.81S WCI  15
WINSTON-SALEM  CLEAR     26  10  50 W7        29.83S WCI  18
RALEIGH-DURHAM PTCLDY    29  12  49 W7        29.82S WCI  22
FORT BRAGG     PTCLDY    30  11  45 W6        29.85R WCI  24
FAYETTEVILLE   MOCLDY    33  10  38 W10       29.86R WCI  25
BURLINGTON     CLEAR     25  13  60 W8        29.82S WCI  16
LAURINBURG     CLOUDY    34  11  38 NW8       29.89R WCI  27
$$

NCZ011-015-027-028-043-044-047-080-103-100600-
NORTHEASTERN NORTH CAROLINA

CITY           SKY/WX    TMP DP  RH WIND       PRES   REMARKS
ROCKY MT-WILSO PTCLDY    32  15  49 W10       29.82R WCI  24
GREENVILLE     CLOUDY    36  18  48 W7        29.84R WCI  30
WASHINGTON     CLOUDY    36  24  60 W6        29.80R WCI  31
ELIZABETH CITY CLOUDY    37  25  61 W12       29.75S WCI  29
MANTEO         CLOUDY    39  28  65 W10       29.76S WCI  32
CAPE HATTERAS  PTCLDY    41  25  53 W15G25    29.78R
$$

NCZ078-087-090-091-093-098-101-100600-
SOUTHEASTERN NORTH CAROLINA

CITY           SKY/WX    TMP DP  RH WIND       PRES   REMARKS
LUMBERTON      CLOUDY    36  15  42 NW10      29.88R WCI  28
GOLDSBORO      MOCLDY    34  12  40 W17G26    29.82R WCI  23
KINSTON        MOCLDY    36  14  40 W8        29.83R WCI  30
KENANSVILLE    CLOUDY    35  16  45 CALM      29.85R
NEW BERN       CLOUDY    38  22  52 W10       29.82S WCI  31
CHERRY POINT   CLOUDY    39  27  62 SW8       29.82S WCI  33
BEAUFORT       CLOUDY    39  26  59 W15       29.82S WCI  31
JACKSONVILLE   CLOUDY    38  25  59 W6        29.83S WCI  33
WILMINGTON     CLOUDY    39  25  57 SW14      29.86R WCI  31
$$




USA.gov is the U.S. government's official web portal to all federal, state and local government web resources and services.